Regional Weather Roundup
Issued by NWS

Home | Current Version | Previous Version | Text Only | Print | Product List | Glossary On
Versions: 1 2 3 4 5 6 7 8 9 10 11 12 13 14 15 16 17 18 19 20 21 22 23 24 25 26 27 28 29 30 31 32 33 34 35 36 37 38 39 40 41 42 43 44 45 46 47 48 49 50
000
ASUS43 KLSX 280907
RWRMO

WEATHER SUMMARY FOR MISSOURI
NATIONAL WEATHER SERVICE SPRINGFIELD MO
400 AM CDT MON JUL 28 2014

NOTE: "FAIR" INDICATES FEW OR NO CLOUDS BELOW 12,000 FEET WITH NO
       SIGNIFICANT WEATHER AND/OR OBSTRUCTIONS TO VISIBILITY.
       CURRENT SKY AND/OR WEATHER CONDITIONS ARE NOT AVAILABLE FOR
       CHILLICOTHE AND FARMINGTON.

MOZ001>031-035>038-043-044-053-054-281000-
...NORTHERN AND WESTERN MISSOURI...

CITY           SKY/WX    TMP DP  RH WIND       PRES   REMARKS
KANSAS CTY INT CLEAR     61  57  87 NW6       30.15S
KANSAS C DTWN  CLEAR     66  58  75 N3        30.14S
LEE`S SUMMIT   CLEAR     65  57  75 N9        30.15R
ST JOSEPH      CLEAR     60  56  86 N3        30.17R
CHILLICOTHE      N/A     65  56  72 VRB5      30.13S
KIRKSVILLE     CLEAR     62  57  83 NW8       30.10R

$$
MOZ066>068-077>081-088>096-101>105-281000-
...SOUTHWEST MISSOURI...

CITY           SKY/WX    TMP DP  RH WIND       PRES   REMARKS
SPRINGFIELD    CLEAR     64  58  80 N8        30.12R
JOPLIN         CLEAR     65  58  78 N5        30.15R

$$
MOZ032>034-039>042-045>050-055>058-069>072-281000-
...CENTRAL MISSOURI...

CITY           SKY/WX    TMP DP  RH WIND       PRES   REMARKS
COLUMBIA       CLEAR     64  57  78 NW8       30.08S
JEFFERSON CITY CLEAR     65  57  75 NW5       30.07S
ROLLA          CLEAR     63  55  75 NW7       30.06S
SEDALIA        CLEAR     64  57  78 NW8       30.11S
WHITEMAN AFB   CLEAR     62  49  62 N7        30.11S
OSAGE BEACH    CLEAR     64  55  72 N5        30.10R

$$
MOZ051-052-059>065-281000-
...EAST CENTRAL MISSOURI...

CITY           SKY/WX    TMP DP  RH WIND       PRES   REMARKS
ST LOUIS INTL  CLEAR     67  59  75 W6        30.02R
SPIRIT OF STL  CLEAR     66  58  75 NW8       30.02R
ST CHARLES     CLEAR     68  59  73 NW12      30.00R

$$
MOZ072>076-082>087-097>100-106>115-281000-
...SOUTH CENTRAL AND SOUTHEAST MISSOURI...

CITY           SKY/WX    TMP DP  RH WIND       PRES   REMARKS
CAPE GIRARDEAU CLEAR     68  59  73 N5        30.00R
FARMINGTON     CLEAR     66  55  68 NW6       30.05S
POPLAR BLUFF   CLEAR     66  59  78 NW5       30.01R
WEST PLAINS    CLEAR     66  57  72 N6        30.09R

$$


USA.gov is the U.S. government's official web portal to all federal, state and local government web resources and services.